Regional Weather Roundup
Issued by NWS

Home | Current Version | Previous Version | Text Only | Print | Product List | Glossary On
Versions: 1 2 3 4 5 6 7 8 9 10 11 12 13 14 15 16 17 18 19 20 21 22 23 24 25 26 27 28 29 30 31 32 33 34 35 36 37 38 39 40 41 42 43 44 45 46 47 48 49 50
000
ASUS43 KLSX 310057
RWRMO

WEATHER SUMMARY FOR MISSOURI
NATIONAL WEATHER SERVICE SPRINGFIELD MO
800 PM CDT SUN AUG 30 2015

NOTE: "FAIR" INDICATES FEW OR NO CLOUDS BELOW 12,000 FEET WITH NO
       SIGNIFICANT WEATHER AND/OR OBSTRUCTIONS TO VISIBILITY.
       CURRENT SKY AND/OR WEATHER CONDITIONS ARE NOT AVAILABLE FOR
       CHILLICOTHE AND FARMINGTON.

MOZ001>031-035>038-043-044-053-054-310200-
...NORTHERN AND WESTERN MISSOURI...

CITY           SKY/WX    TMP DP  RH WIND       PRES   REMARKS
KANSAS CTY INT PTCLDY    78  63  59 E6        29.96S
LEE`S SUMMIT   PTCLDY    79  70  74 E3        29.97R
ST JOSEPH      PTCLDY    79  69  71 E5        29.95F
CHILLICOTHE      N/A     80  71  74 CALM      29.97F

$$
MOZ066>068-077>081-088>096-101>105-310200-
...SOUTHWEST MISSOURI...

CITY           SKY/WX    TMP DP  RH WIND       PRES   REMARKS
SPRINGFIELD    CLEAR     78  68  71 SE6       29.99R
JOPLIN         PTCLDY    78  73  84 SE6       29.95S

$$
MOZ032>034-039>042-045>050-055>058-069>072-310200-
...CENTRAL MISSOURI...

CITY           SKY/WX    TMP DP  RH WIND       PRES   REMARKS
COLUMBIA       NOT AVBL
JEFFERSON CITY CLEAR     80  72  76 E3        29.97R
ROLLA          CLEAR     76  69  79 S5        29.99S
SEDALIA        PTCLDY    80  72  76 E5        29.98R
WARRENSBURG    CLEAR     77  70  78 E3        29.95S

$$
MOZ051-052-059>065-310200-
...EAST CENTRAL MISSOURI...

CITY           SKY/WX    TMP DP  RH WIND       PRES   REMARKS
ST LOUIS INTL  MOCLDY    83  68  60 E8        29.99S

$$
MOZ072>076-082>087-097>100-106>115-310200-
...SOUTH CENTRAL AND SOUTHEAST MISSOURI...

CITY           SKY/WX    TMP DP  RH WIND       PRES   REMARKS
CAPE GIRARDEAU CLOUDY    79  71  76 S7        30.01R
POPLAR BLUFF   PTCLDY    78  72  81 SE6       30.00R
WEST PLAINS    MOCLDY    78  71  79 CALM      30.04R

$$


USA.gov is the U.S. government's official web portal to all federal, state and local government web resources and services.